[[{"header":{"parameterUnit":"m.s-1","parameterCategory":1,"la1":30.2991,"la2":30.254,"lo1":-89.0895,"lo2":-89.0444,"dy":0.0017,"dx":0.0017,"nx":28,"ny":28,"refTime":"2025-04-15T21:00:00:Z","depth":0,"parameterNumber":2,"parameterNumberName":"U-component_of_WINDS"},"data":[0,0,0,0,0,0,0,0,0,0,0,0,0,0,0,0,0,0,0,0,0,0,0,0,0,0,0,0,0,0,0,0,0,0,0,0,0,0,0,0,0,0,0,0,0,0,0,0,0,0,0,0,0,0,0,0,0,0,0.0355,0.0355,0,0.0289,0.0288,0.0287,0.028,0.0281,0.0282,0.0282,0.0209,0.0207,0.0204,0,0,0,0,0,0,0,0,0,0,0,0,0,0.0474,0.0472,0.0356,0.0355,0.0354,0.0289,0.0288,0.0287,0.028,0.0281,0.0282,0.0283,0.021,0.0207,0.0204,0,0,0,0,0,0,0,0,0,0,0,0,0,0.0416,0.0471,0.0356,0.0343,0.0341,0.0289,0.0288,0.0287,0.028,0.0281,0.0282,0.0283,0.0211,0.0208,0.0204,0.0159,0,0,0.0192,0.019,0,0,0,0,0,0,0,0,0.0419,0.0412,0.0345,0.0344,0.0341,0.0294,0.0303,0.0243,0.028,0.0303,0.0282,0.0284,0.0236,0.0231,0.0215,0.0155,0.0152,0.0191,0.0189,0.0187,0.0186,0,0,0,0,0,0,0,0.0423,0.0415,0.0329,0.0345,0.0342,0.0339,0.0332,0.0291,0.0264,0.0301,0.03,0.0293,0.0235,0.0219,0.0214,0.0151,0.0192,0.0188,0.0186,0.0184,0.005,0.0049,0,0,0,0,0,0,0.043,0.0418,0.0331,0.0327,0.0384,0.0336,0.0328,0.0308,0.0265,0.0259,0.0292,0.0293,0.0225,0.0218,0.0211,0.0155,0.0187,0.0184,0.0182,0.0051,0.0049,0.0048,0,0,0,0,0,0,0.0433,0.0423,0.0334,0.0372,0.0361,0.0333,0.031,0.0306,0.029,0.0258,0.0253,0.0281,0.0226,0.0217,0.0172,0.0152,0.0182,0.0179,0.0052,0.005,0.0049,0.0042,0,0,0,0,0,0,0.0436,0.0424,0.0407,0.0372,0.0359,0.0297,0.0309,0.0304,0.0284,0.0284,0.0246,0.0241,0.0226,0.0178,0.0168,0.0147,0.0175,0.0054,0.0052,0.0049,0.0044,0.0041,0.0037,0,0,0,0,0,0.0441,0.0407,0.0406,0.0396,0.0338,0.0296,0.0288,0.0273,0.0282,0.0265,0.0244,0.0242,0.0157,0.0173,0.0162,0.014,0.0055,0.0052,0.005,0.0046,0.0041,0.0038,0,0,0,0,0,0,0.0439,0.0402,0.0401,0.0355,0.0329,0.0295,0.0272,0.0269,0.0238,0.0239,0.0221,0.0212,0.0168,0.015,0.0169,0.0094,0.0107,0.0101,0.0107,0.0103,0.01,0.0104,0.0172,0,0,0,0,0,0.0434,0.0404,0.0373,0.0335,0.0322,0.03,0.0281,0.0272,0.0243,0.0231,0.0207,0.0178,0.0145,0.0123,0.0091,0.0042,0.0033,0.0022,0.0018,0.0016,0.0011,-0.0017,-0.0023,0.0039,0.0039,0.0039,0,0,0.0421,0.0398,0.038,0.0335,0.0313,0.0281,0.029,0.0256,0.0232,0.0225,0.0182,0.0164,0.013,0.0083,0.0061,0.0066,-0.0008,0.0012,0.001,0.0007,-0.002,-0.0026,-0.0031,0.0037,0.0037,0.0038,0,0,0.0383,0.0363,0.0329,0.0308,0.0275,0.0261,0.0253,0.0219,0.0207,0.0164,0.0158,0.0129,0.0072,0.0048,0.0028,-0.0018,-0.0022,-0.0028,-0.0047,-0.0073,-0.0078,-0.0083,-0.01,-0.0106,-0.0033,-0.0033,-0.0033,0,0.0371,0.0324,0.0312,0.0278,0.0258,0.0253,0.0218,0.0197,0.0155,0.0141,0.0148,0.0077,0.0054,0.0001,-0.001,-0.0025,-0.0036,-0.0025,-0.0076,-0.0081,-0.0085,-0.0102,-0.0109,-0.0033,-0.0033,-0.0033,-0.0033,0,0.0311,0.0279,0.0256,0.0217,0.0194,0.016,0.0141,0.012,0.0113,0.0097,0.0053,0.0025,-0.0013,-0.0026,-0.0033,-0.008,-0.0076,-0.0072,-0.006,-0.0091,-0.0108,-0.0114,-0.0034,-0.0034,-0.0034,-0.0034,0,0,0.0268,0.0224,0.0215,0.0198,0.0163,0.0137,0.0102,0.0066,0.0048,0.0019,-0.0011,-0.0058,-0.0055,-0.0077,-0.0087,-0.0111,-0.0147,-0.0104,-0.0105,-0.0112,-0.0201,-0.0204,-0.0212,-0.0149,-0.015,-0.0151,-0.0198,0,0.0224,0.0164,0.0152,0.0099,0.0069,0.0064,0.0034,0.0008,-0.0007,-0.0037,-0.0054,-0.0088,-0.008,-0.0094,-0.0117,-0.0137,-0.0165,-0.0134,-0.0179,-0.018,-0.0171,-0.022,-0.0224,-0.0268,-0.0205,-0.0206,-0.0207,0,0.0165,0.0137,0.0082,0.0051,0.0037,0.0011,-0.0023,-0.005,-0.008,-0.009,-0.0114,-0.0121,-0.0158,-0.0143,-0.0195,-0.0174,-0.0193,-0.0205,-0.0207,-0.0214,-0.0196,-0.0229,-0.0282,-0.0289,-0.0217,-0.0216,-0.0215,0,0.0138,0.0086,0.0046,0.0031,-0.0006,-0.0024,-0.0041,-0.0069,-0.009,-0.012,-0.0133,-0.0168,-0.0187,-0.0214,-0.023,-0.0218,-0.0282,-0.0268,-0.0292,-0.0292,-0.0307,-0.0306,-0.0365,-0.0316,-0.0316,-0.0316,-0.0316,0,0.0089,0.0055,0.0033,0.0008,-0.003,-0.0044,-0.0082,-0.0099,-0.0123,-0.0152,-0.0158,-0.0186,-0.0205,-0.0236,-0.0249,-0.0291,-0.0299,-0.0309,-0.0313,-0.031,-0.0309,-0.0324,-0.0322,-0.0318,-0.0318,-0.0317,-0.0317,0,0.0051,0.0035,-0.0009,-0.0039,-0.0048,-0.0075,-0.0102,-0.0127,-0.0141,-0.0178,-0.0187,-0.0211,-0.0247,-0.0266,-0.0311,-0.032,-0.0368,-0.0369,-0.0358,-0.0359,-0.0383,-0.0381,-0.0455,-0.0466,-0.0409,-0.0409,-0.041,0,0.0021,-0.0006,-0.0038,-0.0057,-0.0074,-0.0105,-0.0125,-0.014,-0.0161,-0.0196,-0.0217,-0.0253,-0.0282,-0.034,-0.0362,-0.0397,-0.04,-0.0423,-0.0405,-0.0401,-0.0402,-0.0401,-0.0404,-0.0427,-0.0428,-0.0428,-0.0429,0,-0.0032,-0.0039,-0.0067,-0.0099,-0.0123,-0.0149,-0.0175,-0.019,-0.0209,-0.0233,-0.0269,-0.0292,-0.0337,-0.0373,-0.041,-0.0428,-0.0432,-0.0433,-0.0441,-0.0439,-0.0432,-0.0438,-0.0368,-0.0432,-0.0432,-0.0432,-0.0431,-0.0431,-0.0069,-0.0092,-0.0119,-0.0151,-0.0171,-0.0195,-0.0219,-0.0237,-0.0266,-0.0304,-0.031,-0.0349,-0.0378,-0.0426,-0.0446,-0.0477,-0.0472,-0.0483,-0.0486,-0.0489,-0.0491,-0.0425,-0.0483,-0.0483,-0.0483,-0.0483,-0.0483,0,-0.0123,-0.014,-0.0169,-0.0204,-0.0229,-0.0228,-0.0257,-0.0278,-0.0312,-0.0337,-0.0366,-0.0407,-0.0442,-0.0466,-0.0502,-0.0522,-0.0525,-0.0531,-0.0531,-0.0535,-0.0492,-0.0482,-0.0529,-0.0528,-0.0528,-0.0528,-0.0528,-0.0528,-0.0155,-0.0194,-0.0204,-0.0254,-0.0271,-0.0307,-0.0324,-0.0346,-0.0366,-0.0412,-0.044,-0.0455,-0.0481,-0.0518,-0.055,-0.0557,-0.057,-0.0577,-0.0583,-0.0543,-0.0538,-0.0534,-0.0525,-0.0579,-0.0579,-0.0624,-0.0624,-0.0625]},{"header":{"parameterUnit":"m.s-1","parameterCategory":1,"la1":30.2991,"la2":30.254,"lo1":-89.0895,"lo2":-89.0444,"dy":0.0017,"dx":0.0017,"nx":28,"ny":28,"refTime":"2025-04-15T21:00:00:Z","depth":0,"parameterNumber":3,"parameterNumberName":"V-component_of_WINDS"},"data":[0,0,0,0,0,0,0,0,0,0,0,0,0,0,0,0,0,0,0,0,0,0,0,0,0,0,0,0,0,0,0,0,0,0,0,0,0,0,0,0,0,0,0,0,0,0,0,0,0,0,0,0,0,0,0,0,0,0,-4.6241,-4.6242,0,-4.6284,-4.6285,-4.6285,-4.6185,-4.6182,-4.6179,-4.6176,-4.6217,-4.6221,-4.6225,0,0,0,0,0,0,0,0,0,0,0,0,0,-4.607,-4.6074,-4.6241,-4.6242,-4.6242,-4.6284,-4.6285,-4.6286,-4.6185,-4.6182,-4.6178,-4.6174,-4.6216,-4.6221,-4.6226,0,0,0,0,0,0,0,0,0,0,0,0,0,-4.6132,-4.6075,-4.6241,-4.6198,-4.6194,-4.6284,-4.6285,-4.6286,-4.6186,-4.6181,-4.6177,-4.6172,-4.6214,-4.622,-4.6226,-4.636,0,0,-4.6245,-4.6248,0,0,0,0,0,0,0,0,-4.6128,-4.6138,-4.6204,-4.6201,-4.6197,-4.6224,-4.624,-4.6311,-4.6187,-4.6189,-4.6175,-4.617,-4.6223,-4.6229,-4.6247,-4.6362,-4.6364,-4.6246,-4.6249,-4.6252,-4.6254,0,0,0,0,0,0,0,-4.6124,-4.6136,-4.6258,-4.6205,-4.6201,-4.6175,-4.6179,-4.6253,-4.6233,-4.6189,-4.6182,-4.6188,-4.6221,-4.6241,-4.6247,-4.6364,-4.6246,-4.6251,-4.6255,-4.6257,-4.6591,-4.6596,0,0,0,0,0,0,-4.6126,-4.6133,-4.6257,-4.626,-4.615,-4.6182,-4.6186,-4.622,-4.6232,-4.6229,-4.6192,-4.6183,-4.6233,-4.624,-4.6248,-4.6406,-4.6252,-4.6258,-4.6261,-4.6586,-4.6592,-4.6598,0,0,0,0,0,0,-4.6123,-4.6138,-4.6255,-4.6194,-4.6207,-4.619,-4.623,-4.6224,-4.6244,-4.6234,-4.623,-4.6217,-4.623,-4.624,-4.6333,-4.6406,-4.626,-4.6266,-4.658,-4.6588,-4.6595,-4.6722,0,0,0,0,0,0,-4.6118,-4.6137,-4.6189,-4.6196,-4.6211,-4.6341,-4.6234,-4.6228,-4.6256,-4.6244,-4.6256,-4.6254,-4.6227,-4.6325,-4.6339,-4.6412,-4.6271,-4.6573,-4.6583,-4.6593,-4.6711,-4.6733,-4.6752,0,0,0,0,0,-4.6112,-4.6222,-4.6192,-4.6207,-4.6275,-4.6345,-4.6353,-4.6321,-4.6262,-4.6313,-4.6306,-4.6253,-4.6395,-4.6335,-4.6351,-4.6426,-4.6568,-4.658,-4.6592,-4.6702,-4.6729,-4.6752,0,0,0,0,0,0,-4.6223,-4.6222,-4.6189,-4.6304,-4.6326,-4.6328,-4.6391,-4.635,-4.6387,-4.6375,-4.6332,-4.6336,-4.6438,-4.6441,-4.6373,-4.6556,-4.6472,-4.6487,-4.655,-4.6576,-4.6596,-4.6593,-4.6276,0,0,0,0,0,-4.6261,-4.6319,-4.6315,-4.6417,-4.6429,-4.6409,-4.6438,-4.6411,-4.6431,-4.6439,-4.6439,-4.646,-4.6509,-4.6542,-4.6587,-4.6711,-4.6712,-4.677,-4.6791,-4.6808,-4.6822,-4.6888,-4.6914,-4.6636,-4.6636,-4.6636,0,0,-4.6339,-4.6346,-4.6385,-4.6439,-4.6453,-4.6513,-4.6417,-4.6485,-4.6529,-4.6449,-4.6538,-4.6539,-4.6559,-4.6668,-4.6717,-4.6674,-4.6898,-4.6822,-4.6836,-4.6841,-4.6902,-4.6929,-4.6952,-4.6644,-4.6643,-4.6641,0,0,-4.6514,-4.6525,-4.6612,-4.6627,-4.6649,-4.6634,-4.6655,-4.6664,-4.6662,-4.675,-4.6692,-4.6743,-4.6829,-4.6845,-4.6865,-4.7046,-4.6999,-4.7062,-4.7168,-4.7233,-4.7255,-4.7274,-4.7339,-4.7363,-4.7075,-4.7076,-4.7076,0,-4.6609,-4.6698,-4.6662,-4.6734,-4.6759,-4.669,-4.6778,-4.6794,-4.6829,-4.6848,-4.68,-4.6906,-4.6914,-4.7027,-4.7071,-4.7089,-4.7112,-4.7061,-4.7255,-4.7274,-4.7291,-4.7353,-4.7377,-4.7083,-4.7082,-4.7082,-4.7081,0,-4.6814,-4.6877,-4.6944,-4.6981,-4.7014,-4.7093,-4.7068,-4.7105,-4.7075,-4.7066,-4.7156,-4.7164,-4.7209,-4.7234,-4.7205,-4.7343,-4.7316,-4.7262,-4.7177,-4.7326,-4.7383,-4.7406,-4.7094,-4.7091,-4.7089,-4.7087,0,0,-4.706,-4.7076,-4.7101,-4.7117,-4.7136,-4.7183,-4.7259,-4.7304,-4.7337,-4.7363,-4.7425,-4.7499,-4.745,-4.7473,-4.7444,-4.7502,-4.7645,-4.7441,-4.744,-4.7479,-4.7798,-4.7839,-4.7867,-4.7613,-4.7618,-4.7621,-4.7796,0,-4.7234,-4.7365,-4.7334,-4.7464,-4.7522,-4.7457,-4.7523,-4.7541,-4.7534,-4.7581,-4.7572,-4.7626,-4.7556,-4.757,-4.7623,-4.7616,-4.7708,-4.7603,-4.7671,-4.7674,-4.7669,-4.7896,-4.794,-4.8105,-4.7818,-4.7822,-4.7825,0,-4.7454,-4.7489,-4.7626,-4.7635,-4.7658,-4.7718,-4.7757,-4.7803,-4.7822,-4.7812,-4.7838,-4.7799,-4.7873,-4.7786,-4.7888,-4.7817,-4.7843,-4.7844,-4.7849,-4.7855,-4.7759,-4.7909,-4.8157,-4.8182,-4.7859,-4.7857,-4.7854,0,-4.7621,-4.7702,-4.7794,-4.781,-4.7823,-4.7867,-4.7874,-4.7888,-4.7918,-4.7951,-4.7969,-4.8011,-4.8034,-4.8066,-4.8039,-4.7978,-4.8145,-4.8056,-4.8139,-4.814,-4.8178,-4.8176,-4.8434,-4.8194,-4.8193,-4.8193,-4.8192,0,-4.7818,-4.7904,-4.787,-4.7927,-4.8021,-4.7984,-4.8078,-4.8077,-4.809,-4.8145,-4.8091,-4.8144,-4.8104,-4.8153,-4.8132,-4.8219,-4.823,-4.8224,-4.8218,-4.823,-4.8231,-4.8247,-4.8235,-4.8199,-4.8198,-4.8197,-4.8195,0,-4.8021,-4.8001,-4.8098,-4.8102,-4.8105,-4.8175,-4.8178,-4.8231,-4.8219,-4.829,-4.8304,-4.8286,-4.8341,-4.8317,-4.8374,-4.836,-4.8473,-4.845,-4.8467,-4.8462,-4.8547,-4.8539,-4.8825,-4.886,-4.8596,-4.8598,-4.8601,0,-4.8149,-4.8213,-4.8225,-4.8259,-4.827,-4.8325,-4.8354,-4.832,-4.8353,-4.8379,-4.8429,-4.8479,-4.8517,-4.8608,-4.8599,-4.8643,-4.8622,-4.8719,-4.8628,-4.8638,-4.8624,-4.8621,-4.8628,-4.8737,-4.874,-4.8743,-4.8745,0,-4.8378,-4.8365,-4.841,-4.8453,-4.849,-4.8522,-4.8548,-4.8578,-4.8545,-4.8584,-4.864,-4.867,-4.8729,-4.878,-4.8818,-4.8824,-4.878,-4.8773,-4.8795,-4.8809,-4.8816,-4.8814,-4.8518,-4.8767,-4.8765,-4.8763,-4.8762,-4.8761,-4.8547,-4.8602,-4.8619,-4.8672,-4.8688,-4.8715,-4.8764,-4.8759,-4.8806,-4.8852,-4.8828,-4.8893,-4.891,-4.8957,-4.8969,-4.9019,-4.8981,-4.9012,-4.902,-4.9029,-4.9041,-4.8807,-4.9026,-4.9025,-4.9024,-4.9024,-4.9023,0,-4.8774,-4.8782,-4.8831,-4.887,-4.8912,-4.8866,-4.8893,-4.893,-4.8989,-4.9009,-4.9048,-4.9112,-4.9161,-4.9157,-4.9201,-4.9242,-4.9223,-4.9255,-4.9252,-4.9254,-4.9072,-4.9049,-4.927,-4.927,-4.927,-4.927,-4.927,-4.927,-4.8897,-4.8988,-4.8977,-4.9075,-4.9082,-4.9147,-4.9166,-4.919,-4.9205,-4.928,-4.9321,-4.9317,-4.9327,-4.9372,-4.9415,-4.9412,-4.9431,-4.9472,-4.9462,-4.9292,-4.9267,-4.9244,-4.9222,-4.9476,-4.9476,-4.964,-4.9642,-4.9643]}]]